Regional Weather Roundup
Issued by NWS

Home | Current Version | Previous Version | Graphics & Text | Print | Product List | Glossary On
Versions: 1 2 3 4 5 6 7 8 9 10 11 12 13 14 15 16 17 18 19 20 21 22 23 24 25 26 27 28 29 30 31 32 33 34 35 36 37 38 39 40 41 42 43 44 45 46 47 48 49 50
000
ASUS43 KOAX 272210
RWRNE

WEATHER ROUNDUP FOR NEBRASKA
NATIONAL WEATHER SERVICE OMAHA NE
500 PM CDT SAT MAY 27 2017

NOTES: SATELLITE DATA IS BEING USED TO AUGMENT CLOUD COVER ABOVE
       12000 FEET.
       "FAIR" INDICATES FEW OR NO CLOUDS BELOW 12,000 FEET WITH NO
       SIGNIFICANT WEATHER AND/OR OBSTRUCTIONS TO VISIBILITY.

  * THESE STATIONS DO NOT REPORT WEATHER SUCH AS RAIN...SNOW OR FOG.

NEZ001>004-019>022-054>056-272300-
NEBRASKA PANHANDLE

CITY           SKY/WX    TMP DP  RH WIND       PRES   REMARKS
SCOTTSBLUFF    MOSUNNY   65  40  39 W13       30.09S
ALLIANCE       MOSUNNY   62  44  51 N9        30.08R
CHADRON        PTSUNNY   59  42  53 NW20G29   30.08R
GORDON         FAIR      64  40  41 W8        30.03F
KIMBALL        CLOUDY    59  42  54 N15G21    30.13R
SIDNEY         CLOUDY    58  43  57 N15G22    30.10R
$$

NEZ057>060-069>072-079>082-272300-
SOUTHWEST NEBRASKA

CITY           SKY/WX    TMP DP  RH WIND       PRES   REMARKS
NORTH PLATTE   PTSUNNY   62  52  69 N9        30.02R
IMPERIAL       PTSUNNY   61  48  62 N10       30.04R
LEXINGTON      CLOUDY    67  56  66 N14       29.98R
MCCOOK         CLOUDY    70  54  56 N12       29.98S
OGALLALA       CLOUDY    65  49  57 N9        30.04R
$$

NEZ005>010-023>029-035>040-094-272300-
NORTH CENTRAL NEBRASKA

CITY           SKY/WX    TMP DP  RH WIND       PRES   REMARKS
VALENTINE      LGT RAIN  65  46  50 NW25G32   29.99S
AINSWORTH      CLOUDY    63  48  58 NW6       29.99F
BROKEN BOW     CLOUDY    64  52  64 N14       29.99R
O`NEILL        CLOUDY    62  51  68 NW10      29.99R
ORD            CLOUDY    64  51  62 N14       29.97R
THEDFORD       CLOUDY    63  49  61 N8        30.02F
$$

NEZ041-046>049-061>064-073>077-083>087-272300-
SOUTH CENTRAL NEBRASKA

CITY           SKY/WX    TMP DP  RH WIND       PRES   REMARKS
GRAND ISLAND   MOSUNNY   73  50  44 N14       29.92S
AURORA         PTSUNNY   75  46  35 N10G25    29.90S
HASTINGS       PTSUNNY   73  49  42 N16       29.92R
HEBRON         PTSUNNY   76  55  47 N12       29.88R
HOLDREGE       CLOUDY    69  50  50 N15G21    29.95R
KEARNEY *      CLOUDY    70  48  46 N23G29    29.95R
YORK           MOSUNNY   75  48  38 N13       29.89R
$$

NEZ011>018-030>034-042>045-272300-
NORTHEAST NEBRASKA

CITY           SKY/WX    TMP DP  RH WIND       PRES   REMARKS
NORFOLK        CLOUDY    69  52  54 N16       29.91R
ALBION         CLOUDY    67  51  56 N12       29.94R
BLAIR          MOSUNNY   73  55  52 E12G18    29.88S
FREMONT        PTSUNNY   74  46  36 NE10      29.89R
TEKAMAH        PTSUNNY   75  46  35 E14       29.87R
WAYNE          PTSUNNY   70  52  52 N13       29.92R
$$

NEZ050>053-065>068-078-088>093-272300-
SOUTHEAST NEBRASKA

CITY           SKY/WX    TMP DP  RH WIND       PRES   REMARKS
LINCOLN        MOSUNNY   77  53  43 NE14      29.88R
OMAHA EPPLEY   PTSUNNY   71  56  58 E12       29.89R
BEATRICE       PTSUNNY   74  60  62 N12G18    29.87R
FALLS CITY     CLOUDY    70  61  73 N8        29.85S
NEBRASKA CITY  PTSUNNY   70  57  63 NE10G17   29.87R
PLATTSMOUTH    CLOUDY    69  59  70 NE8       29.88S
$$

NEZ044-045-051>053-067-272300-
OMAHA AREA

CITY           SKY/WX    TMP DP  RH WIND       PRES   REMARKS
OMAHA EPPLEY   PTSUNNY   71  56  58 E12       29.89R
BLAIR          MOSUNNY   73  55  52 E12G18    29.88S
FREMONT        PTSUNNY   74  46  36 NE10      29.89R
MILLARD        PTSUNNY   72  59  64 E9        29.88R
OFFUTT AFB     PTSUNNY   69  57  67 NE12      29.88R
PLATTSMOUTH    CLOUDY    69  59  70 NE8       29.88S
WAHOO          MOCLDY    75  46  34 NE13      29.87R
$$




USA.gov is the U.S. government's official web portal to all federal, state and local government web resources and services.